This is the latest recevied weather packets stored in our database for station/object AF9W-5. If no packets are shown the sender has not sent any weather packets the latest 10 day(s).
| Time | Temp. | Humidity | Pressure | Rain* | Wind** | Luminosity | Snow |
|---|---|---|---|---|---|---|---|
| 1777757719 | 28.89° C | 21% | 1013 hPa | 0 mm | - | 879 W/m² | - |
| 1777757418 | 28.89° C | 21% | 1013.2 hPa | 0 mm | - | 879 W/m² | - |
| 1777757116 | 28.33° C | 21% | 1013 hPa | 0 mm | - | 789 W/m² | - |
| 1777756813 | 27.78° C | 22% | 1013.1 hPa | 0 mm | - | 914 W/m² | - |
| 1777756509 | 27.22° C | 23% | 1013 hPa | 0 mm | - | 289 W/m² | - |
| 1777755903 | 28.89° C | 21% | 1013.4 hPa | 0 mm | - | 264 W/m² | - |
| 1777755296 | 28.33° C | 23% | 1013.5 hPa | 0 mm | - | 718 W/m² | - |
| 1777752872 | 28.89° C | 21% | 1014 hPa | 0 mm | - | 393 W/m² | - |
| 1777752569 | 28.89° C | 21% | 1014.1 hPa | 0 mm | - | 393 W/m² | - |
| 1777752265 | 29.44° C | 21% | 1013.9 hPa | 0 mm | - | 921 W/m² | - |
| 1777751963 | 28.89° C | 20% | 1014.2 hPa | 0 mm | - | 408 W/m² | - |
| 1777751356 | 27.78° C | 21% | 1014.2 hPa | 0 mm | - | 314 W/m² | - |
| 1777750749 | 28.89° C | 21% | 1014.2 hPa | 0 mm | - | 550 W/m² | - |
| 1777750446 | 29.44° C | 21% | 1014.2 hPa | 0 mm | - | 493 W/m² | - |
| 1777750141 | 31.11° C | 20% | 1013.7 hPa | 0 mm | - | 767 W/m² | - |
| 1777749839 | 29.44° C | 20% | 1014 hPa | 0 mm | - | 1086 W/m² | - |
| 1777749535 | 27.22° C | 22% | 1014.2 hPa | 0 mm | - | 1104 W/m² | - |
| 1777749234 | 27.78° C | 22% | 1014.2 hPa | 0 mm | - | 332 W/m² | - |
| 1777748931 | 27.78° C | 22% | 1014.4 hPa | 0 mm | - | 1098 W/m² | - |
| 1777748628 | 27.22° C | 21% | 1014.5 hPa | 0 mm | - | 331 W/m² | - |
| 1777748324 | 27.22° C | 21% | 1014.5 hPa | 0 mm | - | 264 W/m² | - |
| 1777747717 | 27.78° C | 19% | 1014.4 hPa | 0 mm | - | 685 W/m² | - |
| 1777747109 | 26.67° C | 19% | 1014.8 hPa | 0 mm | - | 1045 W/m² | - |
| 1777743467 | 27.78° C | 21% | 1015.3 hPa | 0 mm | - | 777 W/m² | - |
| 1777742862 | 28.33° C | 22% | 1015.4 hPa | 0 mm | - | 753 W/m² | - |
* Rain latest hour (hover to see other rain measurements)
** Current wind speed in m/s (hover to see current wind gust speed)